EHI
2 2 4 6 5 2 0 0 0 0 0 0 0 0 0 0 0 0 0 0 1 4 7 8 7 6 6 4 3 3 2 2 3 3 2 2 2 1 1 1 0 0 0 0 0 0 0 0 0
2 3 6 8 4 1 0 0 0 0 0 0 0 0 0 0 0 0 1 1 1 3 5 7 7 6 6 4 3 2 1 2 3 3 3 3 2 2 2 1 1 1 1 0 0 0 0 0 0
2 5 9 8 3 0 0 0 0 0 0 0 0 0 0 0 0 1 2 2 1 1 4 7 8 7 6 5 3 1 0 2 4 4 3 4 4 3 3 2 1 2 1 0 0 0 1 1 0
4 7 9 5 1 0 0 0 0 0 0 0 0 0 0 0 0 1 2 3 2 2 5 8 8 8 7 5 2 0 1 3 6 5 4 5 5 4 3 2 3 3 2 1 0 1 2 2 1
6 6 5 2 0 0 0 0 0 0 0 0 0 0 0 0 0 1 3 3 3 3 5 7 8 7 6 4 2 1 2 4 6 5 4 4 5 4 2 2 3 4 3 2 1 1 3 3 3
6 5 2 0 0 0 0 0 0 0 0 0 0 0 0 0 1 2 3 3 3 3 4 6 6 6 5 3 2 2 3 4 5 6 5 4 4 3 2 3 4 5 4 3 2 3 3 3 3
4 3 1 0 0 0 0 0 0 0 0 0 0 0 0 0 1 3 3 3 3 3 3 4 4 5 4 3 2 2 3 4 4 5 6 5 4 3 3 5 7 6 4 3 3 3 3 3 3
3 2 1 0 0 0 0 0 0 0 0 0 0 0 0 1 2 3 3 3 3 3 3 3 3 4 3 3 1 1 2 3 3 4 5 5 4 3 3 5 7 6 4 3 3 3 3 3 3
1 1 1 0 0 0 0 0 0 0 0 0 0 0 1 2 3 3 3 3 3 3 3 3 3 3 3 2 1 0 1 1 2 3 4 4 3 2 1 3 4 4 3 3 3 3 3 3 3
0 0 0 0 0 0 0 0 0 0 0 0 0 0 1 3 3 3 3 3 3 3 3 3 3 3 3 1 1 1 1 1 1 3 4 4 2 1 1 3 5 5 4 4 3 3 3 3 3
0 0 0 0 0 0 0 0 0 0 0 0 1 3 3 3 3 3 1 1 2 3 3 3 3 3 3 2 2 3 3 3 3 4 5 4 3 2 3 5 7 7 6 5 4 4 3 3 3
1 0 0 0 0 0 0 0 0 0 0 0 3 6 7 4 3 3 1 0 1 2 3 3 3 3 4 3 3 4 4 5 5 5 6 5 5 5 5 6 8 10 10 7 5 4 4 3 3
2 1 1 0 0 0 0 0 0 0 0 1 4 8 8 5 3 3 2 1 1 2 3 3 3 4 5 5 4 4 4 5 5 5 6 6 6 6 6 8 9 11 11 10 7 5 3 3 2
3 2 2 1 0 0 0 0 0 0 0 2 4 7 7 4 2 3 3 2 2 2 3 3 3 4 6 7 5 4 4 4 4 4 5 6 6 5 6 9 10 10 10 10 8 6 4 4 3
2 2 1 1 1 0 0 0 0 0 1 2 3 5 5 4 2 2 3 3 3 3 3 3 3 4 7 8 7 4 3 4 4 4 4 4 4 5 6 7 8 8 8 9 8 7 6 5 5
1 1 0 1 1 0 0 0 0 1 2 2 2 4 4 3 1 1 1 2 3 4 4 4 4 4 6 8 7 4 3 3 4 3 3 3 4 5 7 7 6 6 7 7 7 8 7 6 6
0 0 0 0 0 0 0 0 0 2 3 3 4 4 4 2 1 0 0 1 4 5 5 5 5 5 6 8 8 7 5 3 3 3 2 2 4 6 8 8 7 6 6 5 6 8 8 8 7
0 0 0 0 0 0 0 0 0 2 3 4 6 6 4 3 1 0 0 1 4 6 7 7 8 8 8 10 10 8 6 5 4 4 2 2 3 5 7 7 7 6 5 6 6 7 9 9 9
0 0 0 0 0 0 0 0 0 1 3 4 6 8 7 6 3 1 1 1 4 7 9 10 10 11 11 12 11 9 6 5 5 4 3 2 2 3 5 6 6 6 5 5 6 7 7 8 8
0 0 0 0 0 0 0 0 0 1 1 2 4 6 7 8 7 6 5 5 6 8 10 11 12 13 13 12 11 9 6 4 3 2 2 2 1 2 4 5 6 6 5 5 6 7 7 7 7
0 0 0 0 0 0 0 0 0 0 0 0 1 3 5 8 10 12 11 11 11 10 8 9 11 13 13 12 10 9 7 4 2 1 1 1 1 1 2 4 5 6 5 5 5 7 7 6 5
0 0 0 0 0 0 0 0 0 1 0 0 1 2 4 6 9 12 13 14 14 11 7 7 11 14 14 12 11 10 8 5 3 2 1 0 0 1 1 2 5 6 5 5 5 6 7 6 4
0 0 0 0 0 0 0 0 0 0 0 1 2 4 5 5 6 8 10 12 12 11 9 10 13 15 16 15 13 13 11 8 6 4 2 1 1 1 1 3 6 7 7 7 7 7 8 7 5
0 0 0 0 0 0 0 0 0 0 0 1 4 6 7 6 6 8 9 10 11 12 14 15 16 17 20 20 18 16 14 12 10 6 4 3 3 3 4 5 8 10 10 10 10 10 10 10 9
0 0 0 0 0 0 0 0 0 0 2 3 5 6 8 9 9 10 10 10 10 12 14 15 17 19 23 26 24 19 16 13 10 8 7 7 6 6 8 9 10 12 12 12 12 12 12 12 12
0 0 0 0 0 0 0 0 0 2 4 5 6 6 8 10 11 11 11 10 10 10 11 12 13 16 21 27 29 25 18 12 9 9 9 10 9 10 12 13 13 13 13 13 14 14 14 13 13
0 0 0 0 0 0 0 0 0 2 5 7 7 6 7 9 10 10 9 9 9 9 8 9 10 13 17 22 27 25 20 14 11 11 11 10 10 12 15 17 16 14 13 13 14 14 13 13 13
0 0 0 0 0 0 0 0 0 2 5 6 6 7 7 7 8 9 9 9 9 9 9 11 14 17 17 19 20 19 17 15 14 15 13 12 12 13 15 17 17 14 12 13 14 12 10 11 13
0 0 0 0 0 0 0 0 0 2 3 3 4 5 7 8 10 12 12 10 10 10 12 15 19 21 21 19 18 16 15 14 15 18 19 18 17 16 16 17 17 15 13 13 13 12 10 10 12
0 0 0 0 0 0 0 0 0 1 1 1 2 4 7 11 14 16 15 13 11 11 13 17 19 21 21 20 19 18 16 14 16 19 22 22 21 19 17 16 17 17 15 14 13 13 11 11 12
Wind_Speed
10 8 5 5 5 1 8 7 7 6 6 6 5 4 5 6 6 6 5 4 4 5 6 8 8 8 8 8 8 7 7 8 8 9 9 10 10 9 9 10 10 9 9 9 9 9 9 9 9
7 5 5 5 2 5 9 7 7 8 6 4 4 4 5 7 6 5 5 4 4 6 6 8 9 8 8 8 7 7 7 8 8 8 9 9 9 9 9 10 10 9 9 9 9 8 8 8 8
6 6 5 2 5 8 8 7 7 7 6 4 4 5 5 5 5 4 5 5 5 6 7 10 8 8 8 7 7 7 7 7 8 8 8 8 9 9 10 10 10 9 9 9 8 8 8 7 7
5 5 4 0 9 9 7 6 5 6 5 5 3 5 6 5 3 5 6 5 6 6 7 10 8 8 8 7 6 6 6 7 7 7 8 8 8 8 9 9 10 9 9 8 8 8 7 6 6
5 4 1 5 9 8 6 5 4 4 5 5 4 6 6 5 5 6 6 5 5 6 6 9 9 8 7 6 6 6 6 6 7 7 7 7 8 8 8 9 9 9 8 8 7 7 6 6 6
4 3 2 7 9 7 6 4 4 5 6 5 4 5 6 5 5 6 6 4 5 6 7 9 11 8 7 6 6 6 6 6 6 7 7 7 7 7 7 8 8 8 7 7 7 6 6 5 5
4 2 5 7 7 7 6 4 4 4 5 5 3 5 6 6 6 5 5 5 5 5 6 6 7 8 8 7 6 6 5 5 6 6 6 7 7 7 7 7 7 7 7 6 6 6 5 5 5
4 2 4 6 6 8 6 4 4 4 6 5 2 3 5 7 7 6 6 5 5 5 4 5 5 5 5 7 8 6 5 5 5 6 7 7 8 8 8 7 7 7 6 6 6 5 5 5 5
4 2 5 7 6 6 5 4 5 4 6 5 5 6 8 10 8 6 6 5 5 4 3 3 4 4 3 4 7 6 7 6 6 7 8 8 6 7 7 7 7 7 6 6 6 5 5 5 7
3 2 7 6 5 4 4 4 3 3 5 5 6 8 10 9 8 6 5 5 5 4 4 2 3 3 2 3 3 2 3 4 4 3 4 4 4 3 4 7 7 7 6 6 6 5 6 6 5
1 3 5 5 5 3 3 4 3 1 3 4 5 8 9 9 7 6 5 4 4 4 3 3 3 2 1 2 2 1 1 3 3 4 3 3 3 4 4 3 5 6 6 4 6 7 3 2 1
0 2 3 3 3 2 2 3 3 3 5 5 5 8 9 8 7 6 5 4 4 3 3 3 3 2 1 1 1 1 2 2 2 3 3 3 2 2 2 2 2 3 2 2 2 2 2 1 2
2 1 3 2 2 3 3 3 3 3 4 5 7 8 8 7 7 5 5 4 4 3 3 2 2 2 1 1 0 1 2 2 3 2 2 2 2 2 2 1 1 1 1 2 2 2 2 2 2
1 0 2 2 3 3 3 3 2 3 4 6 7 7 7 6 6 6 5 4 4 4 3 3 3 2 2 1 0 0 1 1 1 2 2 1 1 1 1 2 2 1 1 1 1 2 2 2 1
3 3 4 3 2 2 2 2 3 4 5 6 6 6 6 6 6 6 5 5 4 4 4 4 4 3 3 2 1 1 1 1 1 1 2 2 1 1 1 1 2 1 1 2 2 2 1 2 2
5 5 3 4 2 2 6 2 5 5 5 5 5 5 6 6 6 6 6 5 4 4 4 4 3 4 3 2 1 1 0 1 1 1 2 2 2 2 2 1 1 1 1 2 2 1 1 1 1
7 4 1 3 2 2 4 1 4 5 5 5 5 5 5 6 6 6 6 6 5 5 5 4 3 3 3 3 2 1 1 0 1 1 1 2 2 2 2 1 1 1 1 1 1 2 1 1 1
3 3 2 1 2 3 3 1 3 4 5 4 5 5 5 5 6 7 7 6 6 6 5 5 5 4 3 3 2 1 1 1 1 0 1 0 1 2 2 2 2 2 2 1 1 2 1 1 1
5 5 3 1 1 3 3 1 2 4 5 4 4 5 5 4 5 7 7 7 7 7 6 6 5 5 4 3 2 2 2 1 1 1 1 1 1 1 2 2 2 2 2 2 2 2 3 2 2
6 6 3 2 2 4 4 2 2 4 5 4 4 5 5 5 5 7 7 7 8 8 7 7 7 6 5 3 2 1 1 1 1 0 1 1 1 2 2 2 2 2 2 2 2 2 2 1 2
7 6 4 3 3 5 6 4 4 4 4 4 5 5 5 5 6 7 8 8 8 8 8 6 6 6 5 4 3 2 2 2 2 1 1 1 1 1 1 1 1 1 2 2 2 2 3 2 2
5 3 5 5 7 3 4 4 3 3 4 4 5 5 5 5 5 6 7 8 8 8 7 7 6 6 5 5 4 3 2 2 1 1 1 1 1 1 1 1 1 1 1 1 2 2 2 3 2
4 2 5 6 8 6 5 6 2 3 3 3 4 4 4 5 6 6 7 7 7 7 7 7 7 6 6 5 5 4 3 2 1 1 1 1 1 1 1 1 2 2 1 1 1 1 2 2 2
4 5 5 8 9 7 4 6 1 1 1 1 2 3 3 4 5 6 6 6 7 6 7 7 7 7 6 6 5 5 3 3 2 2 2 2 2 2 2 2 2 2 2 2 2 2 2 2 2
9 8 6 7 6 4 2 5 1 2 1 1 0 1 2 3 5 6 7 7 7 7 7 7 7 7 7 7 6 6 5 4 4 3 3 3 2 2 2 2 2 2 2 2 2 3 2 2 2
8 10 7 6 5 3 5 4 1 3 1 0 1 1 2 3 4 5 6 7 7 7 8 8 8 8 7 7 6 5 6 5 4 4 3 3 2 1 1 2 3 3 3 3 3 3 3 3 3
7 8 7 9 8 7 3 2 3 2 1 1 1 1 0 2 3 4 5 6 6 7 7 8 8 7 7 7 6 6 6 5 3 3 4 3 2 2 2 3 3 4 3 3 3 2 3 3 3
7 6 7 7 7 7 5 5 2 2 1 1 1 0 0 1 2 3 4 5 5 6 7 7 7 6 6 6 6 5 6 5 4 4 3 3 2 2 3 3 3 3 4 4 4 3 3 3 3
6 7 7 6 7 8 6 2 3 1 1 1 1 1 1 1 2 3 4 5 5 6 7 7 7 6 5 5 6 5 5 5 5 4 4 3 3 3 4 4 3 3 4 4 3 3 3 4 4
7 7 8 7 6 8 8 1 5 3 1 1 1 1 1 1 1 3 3 4 4 5 5 5 5 5 5 5 5 5 5 5 5 5 4 4 4 4 4 4 4 4 3 3 4 4 4 4 4
Wind_Direction
183 190 215 235 233 133 61 54 47 48 51 45 37 27 35 28 15 53 76 92 93 105 116 124 118 123 123 121 122 129 134 138 142 145 151 153 152 151 151 151 151 152 152 149 146 143 141 143 146
180 188 229 241 287 64 61 50 48 46 65 67 56 45 55 57 48 86 109 102 108 112 118 110 111 119 121 120 121 125 131 138 144 148 152 154 156 159 157 153 152 155 154 151 148 146 145 145 148
185 223 259 266 41 47 53 50 56 71 79 62 58 42 44 52 69 91 102 121 119 117 119 112 119 120 121 120 121 126 132 137 141 146 148 152 157 161 157 155 153 155 155 153 152 149 147 146 148
209 221 232 10 63 55 46 54 68 88 77 63 70 77 69 55 61 91 110 126 121 119 119 117 128 125 123 124 125 126 133 137 139 142 144 147 150 154 158 157 155 156 157 156 156 153 155 154 151
239 257 193 76 66 64 58 58 72 69 71 72 74 83 83 68 80 100 119 123 117 114 117 123 129 128 128 128 127 128 132 135 137 140 142 144 147 150 151 153 154 154 154 155 157 158 160 162 161
247 254 44 63 67 69 68 68 71 63 70 79 86 91 84 90 100 108 112 111 103 102 102 116 131 131 134 132 130 133 135 138 141 143 144 143 143 146 148 151 151 150 153 156 156 156 158 165 167
296 348 51 56 65 71 68 61 51 58 68 68 74 89 104 111 106 107 108 111 98 98 100 110 128 139 145 139 134 133 136 137 142 146 148 149 149 150 152 150 150 153 154 157 156 158 163 169 175
297 302 64 63 55 64 78 81 49 43 65 74 64 81 113 126 126 124 117 110 100 97 97 108 121 125 139 138 136 140 140 140 143 146 151 156 160 161 160 159 157 159 161 163 164 166 171 174 181
258 266 57 50 44 58 76 85 76 69 90 87 65 62 102 128 137 136 128 123 118 110 105 102 117 124 132 129 137 152 157 153 158 154 161 175 174 166 165 157 154 166 172 173 172 176 184 193 188
261 9 47 39 34 49 66 64 87 116 104 101 102 98 120 139 145 148 141 135 130 123 118 114 107 100 112 114 126 150 155 147 157 139 158 169 157 160 160 148 165 174 178 182 183 192 202 219 195
316 24 41 46 43 51 79 78 78 91 72 78 112 127 138 146 150 153 145 139 132 131 122 114 104 99 88 108 121 126 139 135 143 138 155 160 162 161 166 159 169 177 182 190 182 199 202 208 204
148 34 26 31 34 53 71 89 81 48 44 67 108 133 144 153 152 152 147 146 138 134 126 120 119 118 89 56 100 132 129 128 125 134 164 161 161 160 152 167 163 167 168 178 195 182 163 192 201
176 58 60 65 80 83 100 95 86 70 79 100 118 137 149 153 152 150 150 147 144 144 138 134 125 114 110 100 320 96 109 113 121 129 143 164 166 158 163 150 170 179 165 176 186 173 174 190 189
64 101 135 135 118 121 110 104 119 97 115 122 136 145 153 156 156 156 160 163 163 159 153 148 152 144 135 137 174 27 112 126 134 136 133 161 161 137 164 167 170 178 176 177 204 183 186 193 158
201 191 169 147 147 148 205 135 118 122 138 139 146 148 155 161 163 168 167 173 172 162 161 160 164 159 156 173 195 173 149 136 119 119 133 158 170 156 189 179 176 173 167 172 186 179 177 177 162
216 224 186 131 165 180 252 80 103 138 158 153 155 155 162 166 172 173 171 174 174 167 158 164 162 159 165 174 211 190 120 115 122 139 142 155 169 187 206 184 169 163 186 182 169 185 153 137 170
211 229 206 146 155 217 261 19 110 156 172 167 170 167 169 168 179 180 180 176 172 171 167 169 164 166 165 170 179 179 146 108 135 137 144 146 175 190 198 188 149 198 197 188 195 140 180 169 191
251 258 233 226 153 234 262 289 127 172 189 186 181 179 180 180 183 181 183 175 171 171 176 176 172 175 178 172 171 185 175 163 147 112 86 173 185 194 218 185 179 204 192 185 187 173 188 208 213
279 282 274 267 243 261 274 281 166 175 194 200 195 188 188 192 182 178 181 179 175 176 180 184 182 176 189 184 185 177 172 176 173 161 138 209 231 200 226 225 180 204 190 202 197 197 186 206 203
252 254 245 201 200 259 273 256 191 189 206 209 212 203 197 187 183 183 186 186 186 185 187 187 188 181 189 180 187 190 205 196 171 152 135 251 242 238 212 223 225 200 196 199 207 212 229 212 208
237 257 262 255 229 231 255 218 187 182 201 205 216 217 206 200 193 187 190 192 190 189 191 191 188 183 185 183 184 176 187 212 191 182 178 232 249 241 274 229 235 226 228 200 210 220 230 231 212
242 244 250 240 245 235 259 270 165 180 198 205 210 209 210 204 205 197 192 192 192 192 187 187 184 186 184 190 193 200 208 217 218 237 174 172 180 241 232 222 210 233 238 213 221 198 242 242 228
266 250 243 245 257 258 239 268 148 179 217 215 203 208 214 215 210 202 198 191 193 190 183 180 180 186 189 196 196 214 220 219 215 199 165 225 183 221 232 213 211 213 228 229 265 234 251 248 259
204 204 213 230 245 246 245 267 256 144 266 239 176 190 204 213 205 194 190 186 188 185 181 176 176 187 189 194 201 213 218 223 225 214 205 212 192 196 202 205 217 220 223 203 216 231 222 246 266
219 232 229 221 223 233 189 253 314 52 40 341 290 177 203 186 183 184 183 186 187 185 183 180 180 188 192 194 202 207 211 215 221 225 216 235 224 198 185 208 217 227 220 220 220 214 239 234 238
224 247 265 274 269 235 189 240 78 76 73 152 176 180 198 182 178 185 185 184 186 187 187 185 187 192 194 198 204 209 213 218 214 220 243 232 246 230 182 211 210 220 228 229 220 226 215 219 233
230 239 267 267 267 271 235 207 176 163 165 181 165 153 188 200 188 184 182 182 185 187 186 187 188 194 198 200 201 206 214 227 226 215 229 232 232 223 201 209 209 214 215 223 225 230 231 221 231
262 250 240 253 269 260 249 244 242 162 190 180 192 131 155 191 175 168 172 177 185 187 185 186 185 191 200 203 208 204 208 213 218 226 225 238 242 245 231 224 223 221 215 217 225 223 224 231 230
210 224 249 258 264 273 270 276 62 99 204 261 285 318 303 225 180 170 170 174 182 181 178 184 186 189 196 205 208 210 209 207 207 214 223 223 233 234 233 233 233 231 225 224 228 238 228 232 232
248 244 242 249 251 260 271 267 97 89 77 283 316 349 353 274 188 162 165 169 176 179 178 181 187 188 194 199 204 205 209 212 212 211 219 222 229 234 229 232 234 234 228 229 230 235 232 233 231